Location: *
(33.8649°S, 62.1526°E)
Time: 04:21:17
(UTC+00:00)

ASTEX 1 - Pass Details

Date: 17 January 2021
Orbit: 719 x 744 km, 92.7° (Epoch: 27 February)

Event Time Altitude Azimuth Distance (km) Brightness Sun altitude
Exits shadow 16:53:32 29° 90° (E) 1,328 4.3 -19.5°
Maximum altitude 16:54:06 30° 103° (ESE) 1,307 4.4 -19.6°
Drops below altitude 10° 16:58:22 10° 162° (SSE) 2,244 6.2 -20.2°
Sets 17:00:54 0° 173° (S) 3,170 7.2 -20.6°
